• In Latvia
  • List of Countries
  • For 7 days
  • Water Temperature
  • Satellite Maps
  • Weather Map
  • Weather Widgets
  • user-avatar
    Login

    Hourly Weather Ordino

    Today, 22 June, Thursday

    Time Temperature Precipitation Wind Pressure Humidity
    00:00 +14°C° 0 mm 1 mps 636 mmHg 81%
    01:00 +13°C° 0.2 mm 1 mps 636 mmHg 81%
    02:00 +13°C° 0.2 mm 1 mps 635 mmHg 81%
    03:00 +13°C° 0.2 mm 1 mps 635 mmHg 81%
    04:00 +14°C° 0 mm 0 mps 636 mmHg 78%
    05:00 +16°C° 0 mm 0 mps 637 mmHg 74%
    06:00 +20°C° 0 mm 1 mps 638 mmHg 67%
    07:00 +22°C° 0 mm 1 mps 639 mmHg 59%
    08:00 +22°C° 0 mm 0 mps 640 mmHg 51%
    09:00 +24°C° 0 mm 0 mps 640 mmHg 43%
    10:00 +27°C° 0.2 mm 1 mps 641 mmHg 41%
    11:00 +27°C° 0.2 mm 1 mps 641 mmHg 40%
    12:00 +28°C° 0.2 mm 1 mps 641 mmHg 38%
    13:00 +28°C° 0.7 mm 1 mps 641 mmHg 40%
    14:00 +27°C° 0.7 mm 1 mps 641 mmHg 42%
    15:00 +27°C° 0.7 mm 1 mps 640 mmHg 44%
    16:00 +26°C° 0.4 mm 1 mps 640 mmHg 48%
    17:00 +26°C° 0.4 mm 1 mps 640 mmHg 53%
    18:00 +25°C° 0.4 mm 1 mps 639 mmHg 57%
    19:00 +22°C° 0.1 mm 1 mps 639 mmHg 64%
    20:00 +19°C° 0.1 mm 1 mps 638 mmHg 72%
    21:00 +15°C° 0.1 mm 1 mps 637 mmHg 79%
    22:00 +15°C° 0 mm 1 mps 637 mmHg 80%
    23:00 +15°C° 0 mm 1 mps 638 mmHg 80%

    Tomorrow, 23 June, Friday

    Time Temperature Precipitation Wind Pressure Humidity
    00:00 +15°C° 0 mm 1 mps 638 mmHg 80%
    01:00 +14°C° 0.2 mm 1 mps 638 mmHg 82%
    02:00 +14°C° 0.2 mm 1 mps 637 mmHg 83%
    03:00 +13°C° 0.2 mm 1 mps 637 mmHg 85%
    04:00 +15°C° 0.2 mm 1 mps 638 mmHg 81%
    05:00 +16°C° 0.2 mm 1 mps 639 mmHg 77%
    06:00 +19°C° 0.2 mm 1 mps 640 mmHg 73%
    07:00 +21°C° 0.1 mm 1 mps 640 mmHg 65%
    08:00 +23°C° 0.1 mm 1 mps 641 mmHg 58%
    09:00 +25°C° 0.1 mm 2 mps 642 mmHg 51%
    10:00 +25°C° 0.4 mm 2 mps 642 mmHg 49%
    11:00 +26°C° 0.4 mm 2 mps 642 mmHg 48%
    12:00 +27°C° 0.4 mm 2 mps 642 mmHg 47%
    13:00 +27°C° 0.8 mm 2 mps 642 mmHg 48%
    14:00 +27°C° 0.8 mm 2 mps 641 mmHg 50%
    15:00 +27°C° 0.8 mm 2 mps 641 mmHg 51%
    16:00 +25°C° 0.7 mm 2 mps 641 mmHg 57%
    17:00 +24°C° 0.7 mm 2 mps 640 mmHg 63%
    18:00 +23°C° 0.7 mm 2 mps 640 mmHg 69%
    19:00 +21°C° 0.3 mm 1 mps 639 mmHg 76%
    20:00 +18°C° 0.3 mm 1 mps 639 mmHg 82%
    21:00 +15°C° 0.3 mm 1 mps 638 mmHg 89%
    22:00 +15°C° 0.3 mm 1 mps 638 mmHg 90%
    23:00 +14°C° 0.3 mm 1 mps 638 mmHg 91%

    Day after tomorrow, 24 June, Saturday

    Time Temperature Precipitation Wind Pressure Humidity
    00:00 +14°C° 0.3 mm 1 mps 638 mmHg 91%
    01:00 +14°C° 0.2 mm 1 mps 638 mmHg 91%
    02:00 +14°C° 0.2 mm 1 mps 637 mmHg 91%
    03:00 +13°C° 0.2 mm 1 mps 637 mmHg 90%
    04:00 +14°C° 0 mm 1 mps 638 mmHg 87%
    05:00 +15°C° 0 mm 1 mps 638 mmHg 84%
    06:00 +18°C° 0 mm 1 mps 638 mmHg 81%
    07:00 +19°C° 0.1 mm 1 mps 639 mmHg 72%
    08:00 +20°C° 0.1 mm 2 mps 639 mmHg 63%
    09:00 +23°C° 0.1 mm 2 mps 640 mmHg 55%
    10:00 +24°C° 0.1 mm 3 mps 640 mmHg 51%
    11:00 +25°C° 0.1 mm 3 mps 640 mmHg 47%
    12:00 +26°C° 0.1 mm 3 mps 640 mmHg 44%
    13:00 +25°C° 0.2 mm 3 mps 640 mmHg 45%
    14:00 +25°C° 0.2 mm 3 mps 640 mmHg 46%
    15:00 +25°C° 0.2 mm 3 mps 639 mmHg 47%
    16:00 +24°C° 0.6 mm 3 mps 639 mmHg 54%
    17:00 +23°C° 0.6 mm 2 mps 638 mmHg 61%
    18:00 +21°C° 0.6 mm 2 mps 638 mmHg 68%
    19:00 +18°C° 0.2 mm 2 mps 638 mmHg 76%
    20:00 +16°C° 0.2 mm 1 mps 637 mmHg 83%
    21:00 +14°C° 0.2 mm 1 mps 637 mmHg 90%
    22:00 +14°C° 0.1 mm 1 mps 637 mmHg 90%
    23:00 +13°C° 0.1 mm 1 mps 636 mmHg 90%

    25 June, Sunday

    Time Temperature Precipitation Wind Pressure Humidity
    00:00 +13°C° 0.1 mm 1 mps 636 mmHg 90%
    01:00 +13°C° 0 mm 1 mps 636 mmHg 90%
    02:00 +12°C° 0 mm 1 mps 636 mmHg 90%
    03:00 +12°C° 0 mm 1 mps 635 mmHg 90%
    04:00 +13°C° 0.1 mm 1 mps 636 mmHg 87%
    05:00 +14°C° 0.1 mm 1 mps 636 mmHg 85%
    06:00 +15°C° 0.1 mm 1 mps 637 mmHg 82%
    07:00 +18°C° 0.1 mm 1 mps 638 mmHg 75%
    08:00 +19°C° 0.1 mm 2 mps 638 mmHg 67%
    09:00 +20°C° 0.1 mm 2 mps 639 mmHg 60%
    10:00 +21°C° 0.5 mm 2 mps 639 mmHg 59%
    11:00 +21°C° 0.5 mm 2 mps 639 mmHg 59%
    12:00 +23°C° 0.5 mm 2 mps 639 mmHg 58%
    13:00 +21°C° 1.4 mm 2 mps 639 mmHg 64%
    14:00 +21°C° 1.4 mm 1 mps 638 mmHg 70%
    15:00 +20°C° 1.4 mm 1 mps 637 mmHg 76%
    16:00 +20°C° 0.5 mm 1 mps 637 mmHg 77%
    17:00 +19°C° 0.5 mm 1 mps 637 mmHg 78%
    18:00 +18°C° 0.5 mm 2 mps 636 mmHg 79%
    19:00 +18°C° 0.1 mm 1 mps 636 mmHg 83%
    20:00 +16°C° 0.1 mm 1 mps 636 mmHg 86%
    21:00 +15°C° 0.1 mm 1 mps 635 mmHg 90%
    22:00 +14°C° 0.1 mm 1 mps 635 mmHg 91%
    23:00 +14°C° 0.1 mm 1 mps 635 mmHg 91%

    26 June, Monday

    Time Temperature Precipitation Wind Pressure Humidity
    00:00 +14°C° 0.1 mm 1 mps 634 mmHg 92%
    01:00 +13°C° 0 mm 1 mps 634 mmHg 91%
    02:00 +13°C° 0 mm 1 mps 633 mmHg 90%
    03:00 +13°C° 0 mm 1 mps 633 mmHg 89%
    04:00 +14°C° 0 mm 1 mps 633 mmHg 86%
    05:00 +14°C° 0 mm 2 mps 633 mmHg 82%
    06:00 +15°C° 0 mm 2 mps 633 mmHg 79%
    07:00 +17°C° 0 mm 2 mps 634 mmHg 70%
    08:00 +18°C° 0 mm 2 mps 634 mmHg 62%
    09:00 +20°C° 0 mm 3 mps 634 mmHg 54%
    10:00 +20°C° 0.2 mm 3 mps 634 mmHg 55%
    11:00 +20°C° 0.2 mm 3 mps 634 mmHg 57%
    12:00 +19°C° 0.2 mm 3 mps 633 mmHg 59%
    13:00 +20°C° 0.1 mm 2 mps 633 mmHg 55%
    14:00 +21°C° 0.1 mm 2 mps 633 mmHg 52%
    15:00 +21°C° 0.1 mm 2 mps 633 mmHg 49%
    16:00 +21°C° 0.2 mm 2 mps 633 mmHg 52%
    17:00 +20°C° 0.2 mm 2 mps 632 mmHg 56%
    18:00 +19°C° 0.2 mm 2 mps 632 mmHg 60%
    19:00 +17°C° 0.3 mm 2 mps 631 mmHg 69%
    20:00 +15°C° 0.3 mm 1 mps 631 mmHg 78%
    21:00 +13°C° 0.3 mm 1 mps 631 mmHg 86%
    22:00 +13°C° 0.1 mm 1 mps 631 mmHg 87%
    23:00 +12°C° 0.1 mm 1 mps 630 mmHg 88%

    27 June, Tuesday

    Time Temperature Precipitation Wind Pressure Humidity
    00:00 +12°C° 0.1 mm 1 mps 630 mmHg 89%
    01:00 +11°C° 0.1 mm 1 mps 630 mmHg 90%
    02:00 +11°C° 0.1 mm 1 mps 630 mmHg 90%
    03:00 +11°C° 0.1 mm 1 mps 630 mmHg 91%
    04:00 +12°C° 0.1 mm 1 mps 630 mmHg 88%
    05:00 +13°C° 0.1 mm 1 mps 631 mmHg 84%
    06:00 +15°C° 0.1 mm 1 mps 632 mmHg 81%
    07:00 +16°C° 0.3 mm 1 mps 632 mmHg 76%
    08:00 +17°C° 0.3 mm 2 mps 633 mmHg 72%
    09:00 +19°C° 0.3 mm 3 mps 633 mmHg 67%
    10:00 +19°C° 0.4 mm 3 mps 633 mmHg 62%
    11:00 +20°C° 0.4 mm 3 mps 633 mmHg 58%
    12:00 +21°C° 0.4 mm 4 mps 633 mmHg 54%
    13:00 +21°C° 0.9 mm 3 mps 633 mmHg 55%
    14:00 +21°C° 0.9 mm 3 mps 632 mmHg 57%
    15:00 +21°C° 0.9 mm 3 mps 632 mmHg 59%
    16:00 +19°C° 1.3 mm 3 mps 631 mmHg 66%
    17:00 +18°C° 1.3 mm 2 mps 631 mmHg 73%
    18:00 +17°C° 1.3 mm 2 mps 630 mmHg 80%
    19:00 +15°C° 1 mm 2 mps 629 mmHg 85%
    20:00 +14°C° 1 mm 1 mps 629 mmHg 89%
    21:00 +12°C° 1 mm 1 mps 628 mmHg 93%
    22:00 +12°C° 0.4 mm 1 mps 628 mmHg 93%
    23:00 +12°C° 0.4 mm 1 mps 628 mmHg 93%
    Show more